TimeCDT,TemperatureF,Dew PointF,Humidity,Sea Level PressureIn,VisibilityMPH,Wind Direction,Wind SpeedMPH,Gust SpeedMPH,PrecipitationIn,Events,Conditions,WindDirDegrees,DateUTC
12:15 AM,37.4,35.2,92,29.99,3.0,North,9.2,-,0.05,Rain,Rain,360,2013-05-04 05:15:00
12:35 AM,37.4,35.2,92,29.95,10.0,North,12.7,-,0.06,Rain,Light Rain,360,2013-05-04 05:35:00
12:55 AM,37.4,35.6,93,29.94,10.0,North,15.0,-,0.06,,Light Drizzle,10,2013-05-04 05:55:00
1:15 AM,37.4,35.6,93,29.94,10.0,North,13.8,-,N/A,,Drizzle,10,2013-05-04 06:15:00
1:35 AM,37.4,35.6,93,29.93,10.0,North,12.7,-,N/A,,Drizzle,10,2013-05-04 06:35:00
1:55 AM,38.5,36.5,93,29.95,10.0,NNE,9.2,-,N/A,Rain,Rain,20,2013-05-04 06:55:00
2:15 AM,38.7,36.7,93,29.94,7.0,NNE,11.5,-,N/A,,Drizzle,20,2013-05-04 07:15:00
2:35 AM,38.7,36.7,93,29.93,7.0,NNE,12.7,-,0.01,Rain,Light Rain,20,2013-05-04 07:35:00
2:55 AM,40.1,37.9,92,29.92,7.0,NNE,12.7,-,0.01,Rain,Light Rain,20,2013-05-04 07:55:00
3:15 AM,40.1,38.1,93,29.91,10.0,NNE,12.7,-,N/A,,Drizzle,20,2013-05-04 08:15:00
3:35 AM,41.2,39.4,93,29.91,7.0,NNE,11.5,-,N/A,,Overcast,30,2013-05-04 08:35:00
3:55 AM,42.3,40.5,93,29.91,7.0,NE,10.4,-,N/A,,Overcast,50,2013-05-04 08:55:00
4:15 AM,45.0,43.2,93,29.91,4.0,NE,12.7,-,N/A,,Light Drizzle,50,2013-05-04 09:15:00
4:35 AM,45.0,43.0,93,29.91,4.0,NE,11.5,-,N/A,,Overcast,50,2013-05-04 09:35:00
4:55 AM,45.0,43.0,93,29.92,4.0,NE,11.5,-,N/A,,Overcast,50,2013-05-04 09:55:00
5:15 AM,45.0,43.0,93,29.92,3.0,NE,10.4,16.1,0.01,Rain,Light Rain,50,2013-05-04 10:15:00
5:35 AM,45.0,43.0,93,29.92,4.0,NE,12.7,-,0.01,,Light Drizzle,50,2013-05-04 10:35:00
5:55 AM,45.9,43.7,92,29.93,4.0,NE,8.1,-,0.02,,Drizzle,50,2013-05-04 10:55:00
6:15 AM,46.8,44.8,93,29.93,3.0,NE,9.2,-,0.01,,Drizzle,40,2013-05-04 11:15:00
6:35 AM,47.5,45.5,93,29.93,3.0,NE,10.4,-,0.01,,Light Drizzle,40,2013-05-04 11:35:00
6:55 AM,47.5,45.5,93,29.93,2.5,NE,11.5,-,0.01,,Overcast,50,2013-05-04 11:55:00
7:15 AM,47.5,45.5,93,29.93,2.5,NE,10.4,-,N/A,,Drizzle,50,2013-05-04 12:15:00
7:35 AM,47.5,45.5,93,29.93,2.5,NE,11.5,-,N/A,,Drizzle,40,2013-05-04 12:35:00
7:55 AM,47.5,45.5,93,29.94,2.5,NE,11.5,-,0.01,,Drizzle,40,2013-05-04 12:55:00
8:15 AM,47.5,45.5,93,29.95,3.0,ENE,9.2,17.3,N/A,,Light Drizzle,60,2013-05-04 13:15:00
8:35 AM,47.5,45.1,92,29.96,4.0,ENE,12.7,-,N/A,Rain,Light Rain,60,2013-05-04 13:35:00
8:55 AM,48.0,45.5,91,29.96,4.0,ENE,12.7,-,N/A,,Mostly Cloudy,60,2013-05-04 13:55:00
9:15 AM,49.8,47.1,90,29.97,4.0,ENE,12.7,-,N/A,,Mostly Cloudy,60,2013-05-04 14:15:00
9:35 AM,52.5,49.1,88,29.97,5.0,ENE,11.5,-,N/A,,Scattered Clouds,60,2013-05-04 14:35:00
9:55 AM,53.1,49.1,86,29.98,7.0,ENE,10.4,-,N/A,,Scattered Clouds,70,2013-05-04 14:55:00
10:15 AM,55.6,50.5,83,29.99,7.0,East,16.1,-,N/A,,Scattered Clouds,80,2013-05-04 15:15:00
10:35 AM,55.0,50.0,83,30.00,10.0,ENE,11.5,-,N/A,,Scattered Clouds,70,2013-05-04 15:35:00
10:55 AM,55.0,49.5,81,30.00,7.0,ENE,15.0,-,N/A,,Scattered Clouds,70,2013-05-04 15:55:00
11:15 AM,55.0,49.6,82,30.00,10.0,ENE,10.4,-,N/A,,Scattered Clouds,70,2013-05-04 16:15:00
11:35 AM,55.0,49.8,83,30.00,10.0,East,9.2,-,N/A,,Mostly Cloudy,80,2013-05-04 16:35:00
11:55 AM,57.4,52.2,83,30.00,10.0,ENE,9.2,-,N/A,,Overcast,70,2013-05-04 16:55:00
12:15 PM,57.9,52.2,81,30.00,7.0,ENE,9.2,-,N/A,,Mostly Cloudy,70,2013-05-04 17:15:00
12:35 PM,60.1,52.3,76,29.99,10.0,ENE,9.2,16.1,N/A,,Scattered Clouds,60,2013-05-04 17:35:00
12:55 PM,60.1,52.0,75,29.99,10.0,East,12.7,-,N/A,,Mostly Cloudy,80,2013-05-04 17:55:00
1:15 PM,61.9,53.1,73,29.98,10.0,NE,13.8,17.3,N/A,,Mostly Cloudy,50,2013-05-04 18:15:00
1:35 PM,61.7,53.2,74,29.98,10.0,NE,15.0,19.6,N/A,,Mostly Cloudy,50,2013-05-04 18:35:00
1:55 PM,62.6,52.9,70,29.98,10.0,ENE,15.0,-,N/A,,Scattered Clouds,60,2013-05-04 18:55:00
2:15 PM,64.8,55.0,71,29.98,10.0,NE,13.8,-,N/A,,Scattered Clouds,50,2013-05-04 19:15:00
2:35 PM,65.3,54.9,69,29.98,10.0,NE,13.8,17.3,N/A,,Scattered Clouds,50,2013-05-04 19:35:00
2:55 PM,65.3,54.3,68,29.98,10.0,NE,13.8,-,N/A,,Scattered Clouds,50,2013-05-04 19:55:00
3:15 PM,62.6,53.1,71,29.97,10.0,ENE,11.5,-,N/A,Rain,Rain,60,2013-05-04 20:15:00
3:35 PM,65.3,54.9,69,29.96,10.0,NE,15.0,-,N/A,,Clear,50,2013-05-04 20:35:00
3:55 PM,62.6,53.2,71,29.96,10.0,ENE,11.5,-,N/A,,Scattered Clouds,60,2013-05-04 20:55:00
4:15 PM,65.3,54.7,68,29.96,10.0,ENE,12.7,-,N/A,,Clear,60,2013-05-04 21:15:00
4:35 PM,67.6,56.1,67,29.96,10.0,ENE,15.0,18.4,N/A,,Clear,60,2013-05-04 21:35:00
4:55 PM,65.3,53.6,66,29.96,10.0,ENE,10.4,-,N/A,,Clear,60,2013-05-04 21:55:00
5:15 PM,65.3,54.3,68,29.96,10.0,ENE,13.8,20.7,N/A,,Scattered Clouds,60,2013-05-04 22:15:00
5:35 PM,57.6,51.8,81,29.97,5.0,NE,13.8,-,0.01,Rain,Light Rain,50,2013-05-04 22:35:00
5:55 PM,57.6,53.8,87,29.97,10.0,NNE,6.9,-,0.02,Rain,Rain,20,2013-05-04 22:55:00
6:15 PM,58.3,54.7,88,29.98,10.0,NNE,4.6,-,N/A,,Scattered Clouds,20,2013-05-04 23:15:00
6:35 PM,59.0,54.9,86,29.99,10.0,Calm,Calm,-,N/A,,Scattered Clouds,0,2013-05-04 23:35:00
6:55 PM,59.0,54.7,86,29.99,10.0,Calm,Calm,-,N/A,,Mostly Cloudy,0,2013-05-04 23:55:00
7:15 PM,57.6,52.7,84,29.99,10.0,South,3.5,-,N/A,,Mostly Cloudy,190,2013-05-05 00:15:00
7:35 PM,58.8,52.9,81,29.99,10.0,Calm,Calm,-,N/A,,Overcast,0,2013-05-05 00:35:00
7:55 PM,57.7,52.9,84,30.00,10.0,Calm,Calm,-,N/A,,Overcast,0,2013-05-05 00:55:00
8:15 PM,57.6,53.6,87,30.01,10.0,South,5.8,-,N/A,,Mostly Cloudy,180,2013-05-05 01:15:00
8:35 PM,55.0,51.3,87,30.01,10.0,Calm,Calm,-,N/A,,Mostly Cloudy,0,2013-05-05 01:35:00
8:55 PM,56.5,52.5,87,30.01,10.0,Calm,Calm,-,N/A,,Mostly Cloudy,0,2013-05-05 01:55:00
9:15 PM,55.2,51.4,87,30.03,10.0,South,3.5,-,N/A,Rain,Light Rain,180,2013-05-05 02:15:00
9:35 PM,55.0,52.2,90,30.03,10.0,SW,5.8,-,N/A,Rain,Light Rain,230,2013-05-05 02:35:00
9:55 PM,55.0,52.7,92,30.03,10.0,West,3.5,-,N/A,Rain,Rain,270,2013-05-05 02:55:00
10:15 PM,55.0,52.2,90,30.05,10.0,SSE,4.6,-,N/A,Rain,Light Rain,150,2013-05-05 03:15:00
10:35 PM,54.9,52.7,92,30.05,7.0,Calm,Calm,-,0.01,Rain,Light Rain,0,2013-05-05 03:35:00
10:55 PM,53.8,51.8,93,30.05,5.0,Calm,Calm,-,0.01,Rain,Light Rain,0,2013-05-05 03:55:00
11:15 PM,52.7,50.5,92,30.05,3.0,Calm,Calm,-,N/A,,Light Drizzle,0,2013-05-05 04:15:00
11:35 PM,52.7,50.5,92,30.05,2.5,Calm,Calm,-,0.01,Rain,Heavy Rain,0,2013-05-05 04:35:00
11:55 PM,52.7,50.9,94,30.04,3.0,NNW,3.5,-,0.02,,Drizzle,330,2013-05-05 04:55:00